| time (UTC) | temp C | wind direction | speed KPH | gust KPH | rain 1hr cm | rain 24hr cm | rain mn cm | humidity % | barometer mb |
| 20260510143039 | 23 | 288 | 17.7 | 27.4 | 0.00 | 0.00 | 0.00 | 30 | 1004.8 |
| 20260510141527 | 22 | 221 | 8.0 | 12.9 | 0.00 | 0.00 | 0.00 | 37 | 1004.9 |
| 20260510140027 | 22 | 146 | 6.4 | 9.7 | 0.00 | 0.00 | 0.00 | 39 | 1004.4 |
| 20260510133015 | 20 | 136 | 1.6 | 4.8 | 0.00 | 0.00 | 0.00 | 44 | 1003.8 |
| 20260510131512 | 19 | 136 | 0.0 | 1.6 | 0.00 | 0.00 | 0.00 | 48 | 1003.6 |
| 20260510130015 | 18 | 136 | 3.2 | 11.3 | 0.00 | 0.00 | 0.00 | 48 | 1003.3 |
| 20260510123003 | 17 | 136 | 6.4 | 11.3 | 0.00 | 0.00 | 0.00 | 46 | 1002.9 |
| 20260510121600 | 18 | 136 | 9.7 | 12.9 | 0.00 | 0.00 | 0.00 | 44 | 1002.7 |
| 20260510121502 | 18 | 136 | 9.7 | 12.9 | 0.00 | 0.00 | 0.00 | 44 | 1002.7 |
| 20260510120056 | 18 | 137 | 3.2 | 8.0 | 0.00 | 0.00 | 0.00 | 43 | 1002.5 |
| 20260510114656 | 18 | 138 | 4.8 | 8.0 | 0.00 | 0.00 | 0.00 | 42 | 1002.6 |
| 20260510113013 | 18 | 138 | 4.8 | 8.0 | 0.00 | 0.00 | 0.00 | 42 | 1002.3 |
| 20260510111507 | 18 | 138 | 4.8 | 11.3 | 0.00 | 0.00 | 0.00 | 40 | 1002.3 |
| 20260510110009 | 19 | 138 | 4.8 | 11.3 | 0.00 | 0.00 | 0.00 | 39 | 1002.3 |
| 20260510103055 | 20 | 141 | 8.0 | 12.9 | 0.00 | 0.00 | 0.00 | 36 | 1002.1 |
| 20260510101554 | 20 | 142 | 6.4 | 9.7 | 0.00 | 0.00 | 0.00 | 35 | 1001.9 |
| 20260510100053 | 20 | 142 | 4.8 | 8.0 | 0.00 | 0.00 | 0.00 | 34 | 1001.9 |
| 20260510094651 | 20 | 143 | 8.0 | 14.5 | 0.00 | 0.00 | 0.00 | 33 | 1001.8 |
| 20260510093050 | 21 | 144 | 8.0 | 14.5 | 0.00 | 0.00 | 0.00 | 32 | 1001.8 |
| 20260510091555 | 21 | 155 | 4.8 | 19.3 | 0.00 | 0.00 | 0.00 | 32 | 1001.9 |
| 20260510090059 | 21 | 158 | 14.5 | 19.3 | 0.00 | 0.00 | 0.00 | 30 | 1002.0 |
| 20260510084644 | 22 | 170 | 16.1 | 24.1 | 0.00 | 0.00 | 0.00 | 29 | 1002.0 |
| 20260510083043 | 22 | 174 | 17.7 | 24.1 | 0.00 | 0.00 | 0.00 | 29 | 1001.8 |
| 20260510081544 | 22 | 163 | 20.9 | 25.7 | 0.00 | 0.00 | 0.00 | 28 | 1001.6 |
| 20260510080037 | 23 | 161 | 22.5 | 30.6 | 0.00 | 0.00 | 0.00 | 27 | 1001.6 |
| 20260510074633 | 23 | 165 | 22.5 | 30.6 | 0.00 | 0.00 | 0.00 | 27 | 1001.7 |
| 20260510073038 | 23 | 164 | 22.5 | 29.0 | 0.00 | 0.00 | 0.00 | 27 | 1001.8 |
| 20260510071536 | 23 | 160 | 22.5 | 30.6 | 0.00 | 0.00 | 0.00 | 26 | 1001.9 |
| 20260510070028 | 24 | 159 | 24.1 | 32.2 | 0.00 | 0.00 | 0.00 | 25 | 1002.0 |
| 20260510064623 | 24 | 155 | 22.5 | 30.6 | 0.00 | 0.00 | 0.00 | 25 | 1002.2 |
| 20260510063024 | 24 | 165 | 24.1 | 32.2 | 0.00 | 0.00 | 0.00 | 25 | 1002.3 |
| 20260510061531 | 24 | 167 | 22.5 | 25.7 | 0.00 | 0.00 | 0.00 | 25 | 1002.3 |
| 20260510060026 | 25 | 168 | 24.1 | 30.6 | 0.00 | 0.00 | 0.00 | 25 | 1002.4 |
| 20260510054613 | 25 | 175 | 22.5 | 25.7 | 0.00 | 0.00 | 0.00 | 24 | 1002.4 |
| 20260510053021 | 25 | 171 | 22.5 | 32.2 | 0.00 | 0.00 | 0.00 | 24 | 1002.4 |
| 20260510051518 | 25 | 171 | 20.9 | 27.4 | 0.00 | 0.00 | 0.00 | 23 | 1002.3 |
| 20260510050016 | 26 | 147 | 24.1 | 29.0 | 0.00 | 0.00 | 0.00 | 22 | 1002.3 |
| 20260510044616 | 26 | 180 | 24.1 | 32.2 | 0.00 | 0.00 | 0.00 | 21 | 1002.4 |
| 20260510043009 | 26 | 171 | 29.0 | 40.2 | 0.00 | 0.00 | 0.00 | 19 | 1002.2 |
| 20260510041508 | 26 | 170 | 25.7 | 30.6 | 0.00 | 0.00 | 0.00 | 18 | 1002.2 |
| 20260510040008 | 27 | 167 | 25.7 | 37.0 | 0.00 | 0.00 | 0.00 | 16 | 1002.0 |
| 20260510034608 | 27 | 167 | 22.5 | 32.2 | 0.00 | 0.00 | 0.00 | 15 | 1001.9 |
| 20260510033020 | 27 | 170 | 19.3 | 27.4 | 0.00 | 0.00 | 0.00 | 15 | 1001.9 |
| 20260510031520 | 27 | 171 | 19.3 | 25.7 | 0.00 | 0.00 | 0.00 | 15 | 1001.9 |
| 20260510030011 | 28 | 165 | 17.7 | 27.4 | 0.00 | 0.00 | 0.00 | 14 | 1001.8 |
| 20260510024513 | 29 | 169 | 19.3 | 25.7 | 0.00 | 0.00 | 0.00 | 13 | 1001.7 |
| 20260510023011 | 29 | 177 | 17.7 | 20.9 | 0.00 | 0.00 | 0.00 | 13 | 1001.4 |
| 20260510021513 | 30 | 172 | 20.9 | 24.1 | 0.00 | 0.00 | 0.00 | 12 | 1001.3 |
| 20260510020006 | 30 | 171 | 17.7 | 19.3 | 0.00 | 0.00 | 0.00 | 12 | 1001.2 |
| 20260510014506 | 31 | 168 | 16.1 | 20.9 | 0.00 | 0.00 | 0.00 | 12 | 1001.0 |
| 20260510013005 | 31 | 175 | 14.5 | 19.3 | 0.00 | 0.00 | 0.00 | 11 | 1000.9 |
| 20260510011505 | 32 | 186 | 14.5 | 20.9 | 0.00 | 0.00 | 0.00 | 11 | 1000.8 |
| 20260510010059 | 32 | 191 | 12.9 | 19.3 | 0.00 | 0.00 | 0.00 | 10 | 1000.7 |
| 20260510004555 | 33 | 199 | 11.3 | 16.1 | 0.00 | 0.00 | 0.00 | 10 | 1000.7 |
| 20260510003057 | 33 | 197 | 11.3 | 16.1 | 0.00 | 0.00 | 0.00 | 10 | 1000.6 |
| 20260510001550 | 33 | 191 | 16.1 | 20.9 | 0.00 | 0.00 | 0.00 | 9 | 1000.7 |
| 20260510000114 | 33 | 162 | 12.9 | 19.3 | 0.00 | 0.00 | 0.00 | 9 | 1000.8 |
| 20260509234618 | 33 | 215 | 11.3 | 17.7 | 0.00 | 0.00 | 0.00 | 9 | 1000.9 |
| 20260509233059 | 33 | 200 | 9.7 | 22.5 | 0.00 | 0.00 | 0.00 | 9 | 1001.1 |
| 20260509231610 | 33 | 193 | 14.5 | 30.6 | 0.00 | 0.00 | 0.00 | 9 | 1001.1 |
| 20260509230105 | 34 | 189 | 4.8 | 14.5 | 0.00 | 0.00 | 0.00 | 10 | 1001.3 |
| 20260509224555 | 33 | 189 | 11.3 | 24.1 | 0.00 | 0.00 | 0.00 | 10 | 1001.4 |
| 20260509223052 | 33 | 202 | 16.1 | 25.7 | 0.00 | 0.00 | 0.00 | 10 | 1001.6 |
| 20260509221549 | 34 | 241 | 0.0 | 12.9 | 0.00 | 0.00 | 0.00 | 9 | 1001.7 |
| 20260509220046 | 34 | 269 | 12.9 | 37.0 | 0.00 | 0.00 | 0.00 | 10 | 1001.9 |
| 20260509214544 | 33 | 192 | 8.0 | 22.5 | 0.00 | 0.00 | 0.00 | 10 | 1002.1 |
| 20260509213045 | 33 | 165 | 9.7 | 17.7 | 0.00 | 0.00 | 0.00 | 11 | 1002.3 |
| 20260509211549 | 33 | 195 | 3.2 | 17.7 | 0.00 | 0.00 | 0.00 | 11 | 1002.6 |
| 20260509210056 | 33 | 231 | 6.4 | 25.7 | 0.00 | 0.00 | 0.00 | 11 | 1002.9 |
| 20260509204538 | 33 | 191 | 11.3 | 22.5 | 0.00 | 0.00 | 0.00 | 12 | 1003.3 |
| 20260509203042 | 33 | 210 | 14.5 | 27.4 | 0.00 | 0.00 | 0.00 | 13 | 1003.6 |
| 20260509201533 | 32 | 200 | 11.3 | 27.4 | 0.00 | 0.00 | 0.00 | 12 | 1003.9 |
| 20260509200050 | 32 | 194 | 20.9 | 29.0 | 0.00 | 0.00 | 0.00 | 13 | 1004.1 |
| 20260509194541 | 32 | 218 | 20.9 | 33.8 | 0.00 | 0.00 | 0.00 | 14 | 1004.4 |
| 20260509193044 | 31 | 213 | 16.1 | 30.6 | 0.00 | 0.00 | 0.00 | 14 | 1004.5 |
| 20260509191540 | 31 | 221 | 25.7 | 35.4 | 0.00 | 0.00 | 0.00 | 14 | 1004.7 |
| 20260509190036 | 31 | 196 | 22.5 | 35.4 | 0.00 | 0.00 | 0.00 | 15 | 1004.9 |
| 20260509184540 | 30 | 197 | 19.3 | 30.6 | 0.00 | 0.00 | 0.00 | 16 | 1005.1 |
| 20260509183032 | 30 | 221 | 20.9 | 33.8 | 0.00 | 0.00 | 0.00 | 16 | 1005.4 |
| 20260509181525 | 30 | 192 | 24.1 | 35.4 | 0.00 | 0.00 | 0.00 | 17 | 1005.6 |
| 20260509180024 | 30 | 196 | 25.7 | 35.4 | 0.00 | 0.00 | 0.00 | 18 | 1006.0 |
| 20260509174522 | 28 | 196 | 19.3 | 24.1 | 0.00 | 0.00 | 0.00 | 20 | 1006.3 |
| 20260509173028 | 29 | 182 | 17.7 | 27.4 | 0.00 | 0.00 | 0.00 | 20 | 1006.5 |
| 20260509171533 | 28 | 180 | 19.3 | 27.4 | 0.00 | 0.00 | 0.00 | 20 | 1006.5 |
| 20260509170019 | 27 | 202 | 14.5 | 29.0 | 0.00 | 0.00 | 0.00 | 23 | 1006.7 |
| 20260509164517 | 27 | 173 | 12.9 | 27.4 | 0.00 | 0.00 | 0.00 | 25 | 1006.8 |
| 20260509163107 | 26 | 174 | 19.3 | 27.4 | 0.00 | 0.00 | 0.00 | 25 | 1006.8 |
| 20260509163001 | 26 | 158 | 16.1 | 25.7 | 0.00 | 0.00 | 0.00 | 25 | 1006.9 |
| 20260509161559 | 26 | 206 | 16.1 | 22.5 | 0.00 | 0.00 | 0.00 | 27 | 1006.9 |
| 20260509160054 | 25 | 163 | 14.5 | 19.3 | 0.00 | 0.00 | 0.00 | 28 | 1007.0 |
| 20260509154605 | 24 | 173 | 12.9 | 16.1 | 0.00 | 0.00 | 0.00 | 30 | 1007.1 |
| 20260509153019 | 23 | 180 | 9.7 | 20.9 | 0.00 | 0.00 | 0.00 | 34 | 1007.1 |
| 20260509151506 | 22 | 173 | 12.9 | 16.1 | 0.00 | 0.00 | 0.00 | 36 | 1007.3 |
| 20260509150003 | 22 | 177 | 9.7 | 17.7 | 0.00 | 0.00 | 0.00 | 38 | 1007.3 |
| 20260509144503 | 21 | 180 | 12.9 | 20.9 | 0.00 | 0.00 | 0.00 | 39 | 1007.4 |